www.pogodaiklimat.ru

Погода и климат >> Архив погоды >> Япония >> Кумугая


ПОГОДА в Кумугае

  • Прогноз погоды в Кумугае
  • Монитор погоды в Кумугае

АРХИВ ПОГОДЫ в Кумугае

Время (UTC), дата Ветер
(напр.,м/с)
 
Видим.   Явления Облачность Т
(С)
Тd
(С)
f
(%)
Тe
(С)
Тes
(С)
Комфортность P
(гПа)
Po
(гПа)
Тmin
(С)
Tmax
(С)
R
(мм)
R24
(мм)
S
(см)
13 15.09 СВ 2 20 км н/о +25.9 +20.0 70 +32 +32 очень
душно
1008.4 1004.8
14 15.09 В 2 20 км н/о +25.7 +20.1 71 +32 +32 очень
душно
1007.8 1004.2
16 15.09 СВ 1 20 км н/о +24.9 +20.6 77 +31 +31 очень
душно
1006.8 1003.2
17 15.09 З 1 20 км н/о +24.9 +20.2 75 +31 +31 очень
душно
1006.4 1002.8
18 15.09 З 2 20 км в посл. час дождь н/о +24.8 +20.9 79 +31 +31 очень
душно
1005.8 1002.2 0.0
19 15.09 СЗ 2 20 км н/о +24.3 +20.6 80 +30 +30 очень
душно
1004.9 1001.3
21 15.09 СВ 3 20 км слаб. дождь н/о +23.7 +20.5 82 +29 +29 душно 1005.3 1001.7
22 15.09 СЗ 1 2000 м слаб. дождь н/о +22.3 +21.8 97 +30 +30 очень
душно
1005.3 1001.6
23 15.09 СЗ 2 1800 м слаб. дождь н/о +22.1 +21.8 98 +29 +29 очень
душно
1005.0 1001.3
00 16.09 СЗ 3 2700 м слаб. дождь н/о +22.1 +21.6 97 +29 +29 очень
душно
1004.6 1000.9 +21.9 4
01 16.09 СЗ 3 2400 м слаб. дождь н/о +22.6 +22.3 98 +30 +30 очень
душно
1004.1 1000.5
02 16.09 З 2 13 км слаб. дождь н/о +23.6 +22.2 92 +31 +31 очень
душно
1003.2 999.6
03 16.09 СЗ 2 9000 м слаб. дождь н/о +24.7 +22.6 88 +32 +32 очень
душно
1002.4 998.8
04 16.09 С 2 20 км в посл. час дождь н/о +25.9 +22.4 81 +34 +34 очень
душно
1001.3 997.7
05 16.09 СЗ 2 20 км н/о +26.4 +22.3 78 +34 +34 очень
душно
1001.0 997.4
07 16.09 З 2 20 км н/о +28.4 +23.3 74 +38 +38 очень
душно
1000.6 997.0
08 16.09 С 2 20 км н/о +27.7 +22.9 75 +37 +37 очень
душно
1000.8 997.2
09 16.09 С 1 20 км н/о +27.2 +22.8 77 +36 +36 очень
душно
1001.2 997.6
10 16.09 СЗ 1 20 км н/о +26.8 +22.0 75 +35 +35 очень
душно
1001.9 998.3
11 16.09 З 2 20 км н/о +26.6 +22.5 78 +35 +35 очень
душно
1001.9 998.3
12 16.09 З 3 20 км н/о +27.1 +20.7 68 +34 +34 очень
душно
1002.4 998.8 +29.0 0.5
13 16.09 З 3 20 км н/о +26.8 +20.4 68 +33 +33 очень
душно
1003.4 999.8
14 16.09 СЗ 1 20 км н/о +26.1 +20.4 71 +32 +32 очень
душно
1003.9 1000.3
15 16.09 СВ 1 20 км н/о +25.1 +20.6 76 +31 +31 очень
душно
1004.7 1001.1
16 16.09 З 2 20 км н/о +25.6 +20.0 71 +31 +31 очень
душно
1005.1 1001.5
17 16.09 С 2 20 км н/о +24.1 +20.8 82 +30 +30 очень
душно
1005.5 1001.9
18 16.09 С 1 20 км н/о +24.3 +22.0 87 +31 +31 очень
душно
1006.2 1002.6
19 16.09 С 2 20 км н/о +24.0 +22.6 92 +31 +31 очень
душно
1006.8 1003.2
20 16.09 С 1 15 км н/о +23.3 +22.5 95 +32 +32 очень
душно
1007.5 1003.9
21 16.09 СВ 2 20 км н/о +23.6 +22.4 93 +31 +31 очень
душно
1008.1 1004.5
22 16.09 З 2 20 км н/о +25.2 +21.3 79 +32 +32 очень
душно
1008.2 1004.6
23 16.09 СЗ 2 20 км н/о +26.2 +20.3 70 +32 +32 очень
душно
1008.9 1005.3
01 17.09 Ю 1 20 км н/о +29.0 +20.2 59 +35 +35 очень
душно
1009.6 1006.0
02 17.09 ЮВ 2 20 км н/о +30.1 +19.5 53 +36 +36 очень
душно
1009.2 1005.6
03 17.09 ЮВ 3 20 км н/о +30.8 +20.1 53 +37 +37 очень
душно
1008.9 1005.3
04 17.09 ЮВ 3 20 км н/о +30.8 +21.3 57 +39 +39 очень
душно
1008.7 1005.1
05 17.09 ЮВ 3 20 км н/о +31.8 +20.7 52 +39 +39 очень
душно
1008.6 1005.1
06 17.09 ЮВ 4 20 км н/о +31.0 +20.3 53 +38 +38 очень
душно
1008.5 1004.9
07 17.09 В 5 20 км н/о +30.1 +20.9 58 +37 +37 очень
душно
1009.0 1005.4
08 17.09 ЮВ 6 20 км н/о +28.2 +20.0 61 +34 +34 очень
душно
1010.0 1006.4
09 17.09 ЮВ 4 20 км н/о +26.9 +19.8 65 +33 +33 очень
душно
1010.8 1007.2
10 17.09 ЮВ 5 20 км н/о +25.8 +19.0 66 +31 +31 очень
душно
1011.9 1008.3
11 17.09 ЮВ 4 20 км н/о +25.2 +18.6 67 +30 +30 душно 1012.5 1008.9
12 17.09 ЮВ 4 20 км в посл. час дождь н/о +24.5 +19.1 72 +29 +29 душно 1012.6 1008.9 +32.6 0.0
13 17.09 В 3 20 км н/о +24.1 +19.8 77 +29 +29 душно 1013.2 1009.5
14 17.09 В 2 20 км н/о +23.8 +20.2 80 +29 +29 душно 1013.1 1009.4
15 17.09 Ю 2 20 км н/о +23.4 +20.4 83 +31 +31 очень
душно
1013.1 1009.4
16 17.09 В 2 20 км н/о +23.4 +20.0 81 +30 +30 очень
душно
1012.9 1009.2
17 17.09 В 2 20 км н/о +23.0 +19.8 82 +30 +30 очень
душно
1012.5 1008.8
18 17.09 В 2 20 км н/о +22.8 +20.2 85 +29 +29 очень
душно
1012.3 1008.6
20 17.09 В 2 20 км н/о +22.6 +19.0 80 +28 +28 душно 1012.7 1009.0
23 17.09 СВ 2 20 км н/о +23.2 +19.0 77 +29 +29 душно 1012.4 1008.7
00 18.09 В 2 20 км н/о +24.4 +14.5 54 +27 +27 жарко 1012.6 1008.9 +22.4
01 18.09 СВ 2 20 км н/о +25.1 +15.7 56 +28 +28 жарко 1012.2 1008.6
02 18.09 В 2 20 км н/о +25.7 +17.9 62 +30 +30 душно 1012.0 1008.4
03 18.09 В 2 20 км н/о +25.3 +16.2 57 +29 +29 душно 1010.7 1007.1
04 18.09 С 2 20 км слаб. дождь н/о +24.6 +18.1 67 +29 +29 душно 1010.2 1006.6
05 18.09 Ю 3 20 км слаб. дождь н/о +22.7 +18.9 79 +29 +29 очень
душно
1010.5 1006.8
06 18.09 Ю 2 15 км слаб. дождь н/о +21.6 +18.6 83 +26 +26 душно 1009.9 1006.2 0.0
07 18.09 Ю 3 10 км слаб. дождь н/о +21.0 +19.3 90 +26 +26 душно 1010.7 1007.0
09 18.09 ЮВ 2 20 км слаб. дождь н/о +20.0 +18.8 93 +24 +24 комфорт 1011.7 1008.0
10 18.09 В 1 20 км в посл. час дождь н/о +20.0 +18.7 92 +24 +24 комфорт 1011.8 1008.1
11 18.09 Ю 1 20 км н/о +20.0 +18.3 90 +24 +24 комфорт 1012.3 1008.6
12 18.09 ЮВ 1 20 км {дождь} н/о +19.9 +17.1 84 +24 +24 комфорт 1011.5 1007.8 +26.1 4
13 18.09 В 1 20 км н/о +19.8 +18.1 90 +24 +24 комфорт 1011.7 1008.0
14 18.09 Ю 2 20 км н/о +19.5 +17.3 87 +22 +22 комфорт 1011.8 1008.1
15 18.09 Ю 1 9000 м дымка н/о +19.0 +17.9 93 +22 +22 комфорт 1011.3 1007.6
16 18.09 В 1 12 км н/о +19.0 +18.2 95 +22 +22 комфорт 1011.6 1007.9
17 18.09 ЮЗ 1 14 км н/о +18.1 +17.5 96 +19 +19 1011.0 1007.3
18 18.09 СЗ 1 11 км н/о +17.9 +17.4 97 +20 +20 1011.5 1007.8
19 18.09 СВ 1 17 км н/о +17.7 +17.1 96 +19 +19 1011.8 1008.1
20 18.09 СВ 1 10 км н/о +18.3 +17.7 96 +20 +20 1012.0 1008.3
21 18.09 С 1 19 км в посл. час дождь н/о +18.3 +16.8 91 +20 +20 1013.2 1009.5
22 18.09 З 2 20 км н/о +19.5 +16.6 83 +22 +22 комфорт 1014.1 1010.4
23 18.09 Ю 1 20 км н/о +19.9 +17.1 84 +24 +24 комфорт 1014.2 1010.5
00 19.09 СЗ 5 20 км {дождь} н/о +23.7 +14.4 56 +26 +26 жарко 1014.1 1010.4 +17.3 0.0
01 19.09 СЗ 3 20 км н/о +24.0 +15.0 57 +27 +27 жарко 1014.2 1010.5
02 19.09 С 4 20 км н/о +25.4 +17.6 62 +30 +30 душно 1013.6 1010.0
03 19.09 С 3 20 км н/о +25.2 +16.1 57 +29 +29 душно 1013.1 1009.5
04 19.09 С 3 20 км н/о +26.3 +15.1 50 +29 +29 жарко 1012.5 1008.9
05 19.09 СВ 3 20 км н/о +27.5 +14.9 46 +30 +30 жарко 1012.5 1008.9
06 19.09 СВ 2 20 км н/о +26.5 +14.0 46 +29 +29 жарко 1012.3 1008.7
07 19.09 Ю 3 20 км н/о +27.0 +14.4 46 +29 +29 жарко 1012.2 1008.6
08 19.09 Ю 3 20 км н/о +26.1 +14.6 49 +29 +29 жарко 1012.6 1009.0
09 19.09 ЮВ 3 20 км н/о +25.2 +15.8 56 +28 +28 жарко 1013.2 1009.6
10 19.09 В 3 20 км н/о +23.2 +17.2 69 +28 +28 душно 1014.3 1010.6
11 19.09 В 4 20 км н/о +22.1 +16.8 72 +26 +26 душно 1015.4 1011.7
12 19.09 В 4 20 км слаб. дождь н/о +21.2 +16.6 75 +25 +25 комфорт 1016.1 1012.4 +27.7 0.0
13 19.09 В 3 20 км в посл. час дождь н/о +20.8 +16.0 74 +25 +25 комфорт 1016.2 1012.5
14 19.09 СВ 2 20 км слаб. дождь н/о +20.6 +16.4 77 +24 +24 комфорт 1016.5 1012.8
15 19.09 В 2 20 км в посл. час дождь н/о +20.6 +16.0 75 +25 +25 комфорт 1016.1 1012.4
16 19.09 СВ 2 16 км н/о +20.3 +16.2 77 +24 +24 комфорт 1016.3 1012.6
18 19.09 С 1 20 км {дождь} н/о +20.0 +16.1 78 +24 +24 комфорт 1016.5 1012.8 0.0
19 19.09 СВ 1 20 км в посл. час дождь н/о +19.9 +15.8 77 +23 +23 комфорт 1016.5 1012.8
20 19.09 В 2 20 км н/о +19.8 +15.3 75 +23 +23 комфорт 1016.8 1013.1
21 19.09 В 1 20 км {дождь} н/о +19.3 +15.4 78 +22 +22 комфорт 1017.4 1013.7
22 19.09 З 1 20 км н/о +19.9 +15.8 77 +24 +24 комфорт 1018.2 1014.5
23 19.09 С 2 20 км н/о +20.6 +15.0 70 +24 +24 комфорт 1018.3 1014.6
00 20.09 СВ 1 20 км {дождь} н/о +21.3 +16.3 73 +25 +25 комфорт 1018.1 1014.4 +19.3 0.0
01 20.09 В 2 20 км н/о +23.3 +16.6 66 +28 +28 душно 1017.8 1014.1
02 20.09 З 2 20 км н/о +24.1 +15.3 58 +27 +27 жарко 1017.1 1013.4
03 20.09 ЮЗ 1 20 км н/о +24.2 +14.3 54 +27 +27 жарко 1016.6 1012.9
04 20.09 С 2 20 км н/о +24.8 +14.9 54 +28 +28 жарко 1016.2 1012.5
05 20.09 СВ 2 20 км н/о +26.2 +15.0 50 +29 +29 жарко 1016.0 1012.4
06 20.09 Ю 2 20 км н/о +26.6 +14.4 47 +29 +29 жарко 1016.2 1012.6
07 20.09 В 3 20 км н/о +26.6 +13.7 45 +29 +29 жарко 1016.6 1013.0
08 20.09 В 3 20 км н/о +25.6 +13.8 48 +28 +28 жарко 1017.4 1013.7
09 20.09 В 2 20 км н/о +24.7 +14.5 53 +27 +27 жарко 1017.5 1013.8
10 20.09 В 2 20 км н/о +24.1 +15.1 57 +27 +27 жарко 1018.4 1014.7
11 20.09 В 2 20 км н/о +23.7 +14.4 56 +26 +26 жарко 1019.0 1015.3
12 20.09 В 3 20 км н/о +23.1 +15.2 61 +27 +27 душно 1019.3 1015.6 +27.4
13 20.09 СВ 2 20 км н/о +21.9 +16.4 71 +26 +26 душно 1020.0 1016.3
14 20.09 В 3 20 км н/о +21.4 +16.6 74 +25 +25 комфорт 1020.0 1016.3
15 20.09 СВ 2 20 км в посл. час дождь н/о +21.3 +16.5 74 +25 +25 комфорт 1020.4 1016.7
16 20.09 В 2 20 км слаб. дождь н/о +21.1 +16.9 77 +25 +25 комфорт 1020.5 1016.8
17 20.09 В 2 20 км слаб. дождь н/о +21.1 +16.1 73 +24 +24 комфорт 1020.6 1016.9
18 20.09 СВ 2 18 км слаб. дождь н/о +20.5 +17.5 83 +25 +25 комфорт 1020.4 1016.7 0.0
19 20.09 СВ 2 20 км слаб. дождь н/о +20.1 +17.7 86 +24 +24 комфорт 1020.3 1016.6
20 20.09 В 1 15 км слаб. дождь н/о +20.1 +17.5 85 +24 +24 комфорт 1020.6 1016.9
21 20.09 С 1 18 км слаб. дождь н/о +19.5 +18.0 91 +23 +23 комфорт 1021.3 1017.5
22 20.09 СЗ 2 20 км в посл. час дождь н/о +19.7 +17.1 85 +23 +23 комфорт 1022.1 1018.3
23 20.09 СЗ 1 20 км н/о +20.1 +17.1 83 +24 +24 комфорт 1022.5 1018.7
00 21.09 С 2 20 км в посл. час дождь н/о +20.7 +17.7 83 +25 +25 комфорт 1023.0 1019.3 +19.4 0.0
01 21.09 СВ 1 20 км в посл. час дождь н/о +21.5 +16.9 75 +25 +25 комфорт 1022.8 1019.1
02 21.09 СВ 2 20 км н/о +22.2 +15.8 67 +26 +26 душно 1022.5 1018.8
03 21.09 В 2 20 км {дождь} н/о +22.8 +15.7 64 +27 +27 душно 1021.9 1018.2
04 21.09 В 1 20 км н/о +22.6 +15.5 64 +27 +27 душно 1021.5 1017.8
05 21.09 В 1 20 км н/о +22.8 +15.4 63 +27 +27 душно 1021.1 1017.4
06 21.09 СВ 2 20 км {дождь} н/о +22.8 +15.4 63 +27 +27 душно 1021.2 1017.5 0.0
07 21.09 СВ 2 20 км н/о +23.1 +15.4 62 +27 +27 душно 1021.2 1017.5
08 21.09 СВ 2 20 км в посл. час дождь н/о +22.7 +15.8 65 +27 +27 душно 1021.3 1017.6
09 21.09 СВ 2 20 км {дождь} н/о +22.5 +15.6 65 +26 +26 жарко 1021.4 1017.7
10 21.09 В 1 20 км в посл. час дождь н/о +22.4 +16.2 68 +27 +27 душно 1022.0 1018.3
11 21.09 В 1 20 км слаб. дождь н/о +22.2 +16.3 69 +26 +26 душно 1022.6 1018.9
12 21.09 СЗ 1 20 км в посл. час дождь н/о +21.2 +17.2 78 +25 +25 комфорт 1022.7 1019.0 +23.4 0.0
13 21.09 СЗ 1 20 км н/о +20.9 +17.1 79 +26 +26 душно 1022.5 1018.8
14 21.09 СЗ 1 20 км н/о +20.2 +17.0 82 +24 +24 комфорт 1022.0 1018.3
15 21.09 СЗ 1 20 км н/о +19.9 +17.3 85 +24 +24 комфорт 1022.0 1018.2
16 21.09 СЗ 1 17 км н/о +19.1 +17.4 90 +22 +22 комфорт 1021.7 1017.9
17 21.09 СЗ 1 18 км н/о +19.3 +17.3 88 +22 +22 комфорт 1021.3 1017.5
18 21.09 СЗ 1 20 км н/о +19.6 +17.6 88 +23 +23 комфорт 1021.1 1017.3
19 21.09 З 1 20 км н/о +19.2 +17.0 87 +22 +22 комфорт 1021.1 1017.3
20 21.09 З 1 18 км н/о +18.1 +17.0 93 +19 +19 1021.2 1017.4
21 21.09 СЗ 1 18 км н/о +18.1 +16.8 92 +19 +19 1021.4 1017.6
22 21.09 СЗ 1 18 км н/о +20.1 +16.9 82 +24 +24 комфорт 1021.5 1017.8
23 21.09 С 2 20 км н/о +21.8 +16.8 73 +26 +26 душно 1021.2 1017.5
00 22.09 С 1 20 км н/о +22.4 +16.4 69 +27 +27 душно 1021.0 1017.3 +17.7
01 22.09 В 2 20 км н/о +23.8 +16.8 65 +27 +27 жарко 1020.6 1016.9
02 22.09 ЮВ 2 20 км н/о +24.8 +16.5 60 +28 +28 жарко 1020.2 1016.5
03 22.09 В 2 20 км н/о +25.8 +14.9 51 +29 +29 душно 1019.3 1015.6
04 22.09 В 2 20 км н/о +26.4 +16.6 55 +30 +30 душно 1018.2 1014.6
05 22.09 СВ 2 20 км н/о +26.3 +16.3 54 +30 +30 душно 1017.1 1013.5
06 22.09 СВ 3 20 км н/о +26.8 +16.4 53 +30 +30 душно 1017.0 1013.4
07 22.09 СВ 3 20 км н/о +26.8 +16.4 53 +30 +30 душно 1016.5 1012.9
08 22.09 В 2 20 км слаб. дождь н/о +26.6 +16.8 55 +30 +30 душно 1016.7 1013.1
09 22.09 В 4 20 км в посл. час дождь н/о +24.6 +19.9 75 +30 +30 очень
душно
1016.8 1013.1
10 22.09 ЮВ 3 3100 м слаб. дождь н/о +22.8 +20.5 87 +30 +30 очень
душно
1017.4 1013.7
11 22.09 Ю 1 3200 м слаб. дождь н/о +21.6 +20.9 96 +27 +27 душно 1017.1 1013.4
12 22.09 В 1 3100 м слаб. дождь н/о +21.1 +20.8 98 +26 +26 душно 1017.2 1013.5 +27.4 5
13 22.09 Ю 1 3300 м слаб. дождь н/о +20.9 +20.6 98 +27 +27 душно 1016.7 1013.0

 

Местоположение метеостанции Кумугая (Япония): широта 36.15 долгота 139.38 высота над уровнем моря 31 м.

В архиве по умолчанию представлена погода в Кумугае за последнюю неделю. Архивные данные за месяц целиком и за предыдущие месяцы, начиная с января 2011 года, Вы можете получить, выбрав интересующий диапазон дат из раскрывающегося списка и нажав кнопку "Ввод!".


*Определитесь, кто Вы:
робот инопланетянин человек

Внимание! Время в таблицах - всемирное. Для получения местного времени необходимо прибавить поправку, которая равна 9 ч.

Смотрите также архив погоды в соседних городах и на ближайших метеорологических станциях:

Погода в Чичибу (Япония) (34 км)
Погода в Маебаши (Япония) (40 км)
Погода в Уцуномии (Япония) (62 км)
Погода в Токио (Япония) (62 км)
Погода в Никко (Япония) (65 км)
Погода в Каруидзаве (Япония) (78 км)
Погода в Иокогаме (Япония) (84 км)
Погода в Тибе (Япония) (89 км)
Погода на Озере Кавагучи (Япония) (91 км)
Погода в Кофу (Япония) (92 км)

Пояснения к столбцам:

Ветер - указаны скорость ветра в м/с - средняя за 10 мин, порывы в срок и между сроками (в фигурных скобках) и направление, откуда дует ветер: С - северный, СВ - северо-восточный, В - восточный, ЮВ - юго-восточный, Ю - южный, ЮЗ - юго-западный, З - западный, СЗ - северо-западный.
Видимость - горизонтальная дальность видимости в метрах или километрах. При видимости от 1 до 10 км при отсутствии осадков обычно наблюдается дымка, при ухудшении видимости до 1 км и менее - туман. В сухую погоду видимость может ухудшаться дымом, пылью или мглою.
Явления - указаны атмосферные явления, наблюдавшиеся в срок или в последний час перед сроком; фигурными скобками обозначены явления, наблюдавшиеся между сроками (за 1-3 часа до срока); квадратными скобками обозначены град или гололедные отложения с указанием их диаметра в мм.
Облачность - указаны через наклонную черту общая и нижняя облачность в баллах и высота нижней границы облаков в метрах; квадратными скобками обозначены формы облаков: Ci - перистые, Cs - перисто-слоистые, Cc - перисто-кучевые, Ac - высококучевые, As - высокослоистые, Sc - слоисто-кучевые, Ns - слоисто-дождевые, Cu - кучевые, Cb - кучево-дождевые. Подробнее классификацию облаков см. в Атласе облаков (PDF).
T - Температура воздуха - температура, измеренная на высоте 2 м над землей.
Td - Температура точки росы - температура, при понижении до которой содержащийся в воздухе водяной пар достигнет насыщения.
f - Относительная влажность воздуха - влажноcть воздуха, измеренная на высоте 2 м над землей.
Te - Эффективная температура - температура, которую ощущает одетый по сезону человек в тени. Характеристика душности погоды. При расчете учитывается влияние влажности воздуха и скорости ветра на теплоощущения человека.
Tes - Эффективная температура на солнце - температура, которую ощущает человек, с поправкой на солнечный нагрев. Характеристика знойности погоды. Зависит от высоты солнца над горизонтом, облачности и скорости ветра. Ночью, в пасмурную погоду, а также при ветре 12 м/с и более поправка равна нулю.
P - Атмосферное давление - приведенное к уровню моря атмосферное давление.
Po - Атмосферное давление - измеренное на уровне метеостанции атмосферное давление.
Tmin - Минимальная температура - минимум температуры воздуха на высоте 2 м над землей.
Tmax - Максимальная температура - максимум температуры воздуха на высоте 2 м над землей.
R - Количество осадков - Количество выпавших осадков за период времени, мм. При наведении курсора мыши на число - период времени, за который выпало указанное количество осадков.
R24 - Количество осадков - Количество выпавших осадков за 24 часа, мм.
S - Снежный покров - Высота снежного покрова, см. При наведении курсора мыши на число - состояние снежного покрова и степень покрытия местности в баллах.